Location: Christchurch
(43.5330°S, 172.6330°E)
Time: 12:46:52
(UTC+13:00)

Envisat - Pass Details

Date: 24 January 2019
Orbit: 764 x 766 km, 98.2° (Epoch: 16 February)

Event Time Altitude Azimuth Distance (km) Brightness Sun altitude
Rises 21:25:56 0° 170° (S) 3,275 6.6 -4.3°
Reaches altitude 10° 21:28:17 10° 172° (S) 2,341 5.9 -4.6°
Maximum altitude 21:33:24 66° 253° (WSW) 847 3.6 -5.4°
Drops below altitude 10° 21:38:27 10° 334° (NNW) 2,312 5.4 -6.2°
Sets 21:40:45 0° 337° (NNW) 3,230 6.1 -6.5°
